Pamplona, Spain

7:29 AM CEST on July 24, 2017 (GMT +0200)
Pamplona

Weather History for LEPP - August, 2013

Change the Weather History Date:

Wednesday, August 21, 2013

  Actual Average Record
Temperature  
Mean Temperature 73 °F -  
Max Temperature 91 °F 74 °F 102 °F (2012)
Min Temperature 55 °F 54 °F 50 °F (2014)
Cooling Degree Days 8    
Growing Degree Days 23 (Base 50)    
Moisture  
Dew Point 55 °F    
Average Humidity 52    
Maximum Humidity 94    
Minimum Humidity 26    
Precipitation  
Precipitation 0.00 in - - ()
Sea Level Pressure  
Sea Level Pressure 30.09 in    
Wind  
Wind Speed 2 mph ()    
Max Wind Speed 7 mph    
Max Gust Speed 15 mph    
Averages and records for this station are not official NWS values.
T = Trace of Precipitation, MM = Missing Value Source: Averaged Metar Reports

Daily Weather History Graph

Daily Weather History Graph

Search for Another Location

Airport or City:

Trip Planner

Search our weather history database for the weather conditions in past years. The results will help you decide how hot, cold, wet, or windy it might be!

Date:

Astronomy

Aug. 21, 2013 Rise Set
Actual Time 7:19 AM CEST 8:59 PM CEST
Civil Twilight 6:49 AM CEST 9:28 PM CEST
Nautical Twilight 6:13 AM CEST 10:05 PM CEST
Astronomical Twilight 5:33 AM CEST 10:43 PM CEST
Moon 8:56 PM CEST (8/21) 7:44 AM CEST (8/21)
Length of Visible Light 14h 39m
Length of Day
13h 39m
Full, 100% of the Moon is Illuminated
Aug 21
Full
Aug 28
Last Quarter
Sep 5
New
Sep 12
First Quarter
Sep 19
Full

Hourly Weather History & Observations

Time (CEST) Temp. Heat Index Dew Point Humidity Pressure Visibility Wind Dir Wind Speed Gust Speed Precip Events Conditions
12:00 AM 66.2 °F - 57.2 °F 73% 30.18 in - WNW 5.8 mph - N/A   Clear
5:30 AM 59.0 °F - 55.4 °F 88% 30.15 in - Calm Calm - N/A   Clear
6:00 AM 57.2 °F - 53.6 °F 88% 30.15 in - South 1.2 mph - N/A   Clear
6:30 AM 57.2 °F - 53.6 °F 88% 30.15 in - SSW 1.2 mph - N/A   Clear
7:00 AM 55.4 °F - 51.8 °F 88% 30.15 in - Calm Calm - N/A   Clear
7:30 AM 55.4 °F - 53.6 °F 94% 30.15 in - Calm Calm - N/A   Clear
8:00 AM 57.2 °F - 55.4 °F 94% 30.18 in - Calm Calm - N/A   Clear
8:30 AM 60.8 °F - 55.4 °F 82% 30.18 in - Calm Calm - N/A   Clear
9:00 AM 62.6 °F - 55.4 °F 77% 30.18 in - Calm Calm - N/A   Clear
9:30 AM 64.4 °F - 55.4 °F 73% 30.15 in - Calm Calm - N/A   Clear
10:00 AM 66.2 °F - 55.4 °F 68% 30.15 in - Calm Calm - N/A   Clear
10:30 AM 68.0 °F - 57.2 °F 68% 30.15 in - Calm Calm - N/A   Clear
11:00 AM 71.6 °F - 57.2 °F 60% 30.15 in - Calm Calm - N/A   Clear
11:30 AM 73.4 °F - 57.2 °F 57% 30.15 in - Calm Calm - N/A   Clear
12:00 PM 78.8 °F - 57.2 °F 47% 30.15 in - Variable 1.2 mph - N/A   Clear
12:30 PM 80.6 °F 80.8 °F 57.2 °F 45% 30.12 in - Variable 1.2 mph - N/A   Clear
1:00 PM 82.4 °F 82.0 °F 57.2 °F 42% 30.12 in - NW 2.3 mph - N/A   Clear
1:30 PM 84.2 °F 83.5 °F 57.2 °F 40% 30.12 in - Calm Calm - N/A   Clear
2:00 PM 86.0 °F 84.5 °F 55.4 °F 35% 30.09 in - South 4.6 mph - N/A   Clear
2:30 PM 87.8 °F 86.1 °F 55.4 °F 33% 30.09 in - SSW 6.9 mph - N/A   Clear
3:00 PM 87.8 °F 86.1 °F 55.4 °F 33% 30.09 in - South 5.8 mph - N/A   Clear
3:30 PM 89.6 °F 87.7 °F 55.4 °F 31% 30.06 in - SSW 2.3 mph - N/A   Clear
4:00 PM 89.6 °F 87.7 °F 55.4 °F 31% 30.06 in - South 3.5 mph - N/A   Clear
4:30 PM 91.4 °F 89.4 °F 55.4 °F 29% 30.06 in - ESE 3.5 mph 15.0 mph N/A   Clear
5:00 PM 89.6 °F 87.7 °F 55.4 °F 31% 30.04 in - West 3.5 mph - N/A   Clear
5:30 PM 91.4 °F 89.4 °F 55.4 °F 29% 30.04 in - South 2.3 mph - N/A   Clear
6:00 PM 91.4 °F 89.1 °F 53.6 °F 28% 30.04 in - Calm Calm - N/A   Clear
6:30 PM 91.4 °F 89.1 °F 53.6 °F 28% 30.01 in - WNW 3.5 mph - N/A   Clear
7:00 PM 91.4 °F 89.1 °F 53.6 °F 28% 30.01 in - West 4.6 mph - N/A   Clear
7:30 PM 91.4 °F - 51.8 °F 26% 30.01 in - West 4.6 mph - N/A   Clear
8:00 PM 89.6 °F - 51.8 °F 27% 30.01 in - West 3.5 mph - N/A   Clear
8:30 PM 87.8 °F 85.7 °F 53.6 °F 31% 30.01 in - Variable 2.3 mph - N/A   Clear
9:00 PM 82.4 °F 81.7 °F 55.4 °F 39% 30.01 in - South 1.2 mph - N/A   Clear
9:30 PM 80.6 °F 80.5 °F 55.4 °F 42% 30.01 in - South 2.3 mph - N/A   Clear
10:00 PM 78.8 °F - 53.6 °F 42% 30.04 in - SSE 2.3 mph - N/A   Clear
10:30 PM 78.8 °F - 55.4 °F 44% 30.04 in - SE 1.2 mph - N/A   Clear
11:00 PM 77.0 °F - 57.2 °F 50% 30.04 in - Variable 1.2 mph - N/A   Clear
11:30 PM 73.4 °F - 55.4 °F 53% 30.04 in - Variable 1.2 mph - N/A   Clear